| time (UTC) | temp C | wind direction | speed KPH | gust KPH | rain 1hr cm | rain 24hr cm | rain mn cm | humidity % | barometer mb |
| 20260906231224 | 29 | 61 | 8.0 | 14.5 | 0.00 | 0.03 | 0.03 | 75 | 1011.4 |
| 20260906230225 | 30 | 5 | 9.7 | 19.3 | 0.00 | 0.03 | 0.03 | 72 | 1011.2 |
| 20260906225224 | 30 | 313 | 6.4 | 16.1 | 0.00 | 0.03 | 0.03 | 74 | 1010.7 |
| 20260906224223 | 30 | 324 | 4.8 | 16.1 | 0.00 | 0.03 | 0.03 | 72 | 1010.5 |
| 20260906223224 | 30 | 250 | 6.4 | 14.5 | 0.00 | 0.03 | 0.03 | 72 | 1010.3 |
| 20260906222224 | 31 | 289 | 8.0 | 20.9 | 0.00 | 0.03 | 0.03 | 72 | 1010.3 |
| 20260906221225 | 31 | 221 | 4.8 | 12.9 | 0.00 | 0.03 | 0.03 | 74 | 1010.1 |
| 20260906220225 | 31 | 198 | 6.4 | 17.7 | 0.00 | 0.03 | 0.03 | 71 | 1009.9 |
| 20260906215702 | 32 | 177 | 6.4 | 14.5 | 0.00 | 0.03 | 0.03 | 70 | 1010.1 |
| 20260906214223 | 32 | 182 | 8.0 | 17.7 | 0.00 | 0.05 | 0.03 | 70 | 1010.0 |
| 20260906213225 | 33 | 181 | 6.4 | 14.5 | 0.00 | 0.15 | 0.03 | 66 | 1009.8 |
| 20260906212227 | 33 | 232 | 8.0 | 17.7 | 0.00 | 0.48 | 0.03 | 64 | 1010.1 |
| 20260906211657 | 33 | 216 | 8.0 | 16.1 | 0.00 | 0.61 | 0.03 | 65 | 1010.1 |
| 20260906211148 | 33 | 229 | 9.7 | 19.3 | 0.00 | 0.61 | 0.03 | 60 | 1009.8 |
| 20260906205223 | 34 | 192 | 8.0 | 16.1 | 0.00 | 0.61 | 0.03 | 59 | 1009.8 |
| 20260906204221 | 34 | 242 | 8.0 | 19.3 | 0.00 | 0.61 | 0.03 | 58 | 1010.1 |
| 20260906203222 | 34 | 283 | 6.4 | 16.1 | 0.00 | 0.61 | 0.03 | 60 | 1010.2 |
| 20260906202222 | 34 | 254 | 8.0 | 19.3 | 0.00 | 0.61 | 0.03 | 59 | 1010.4 |
| 20260906201220 | 34 | 234 | 6.4 | 12.9 | 0.00 | 0.61 | 0.03 | 58 | 1010.4 |
| 20260906200219 | 34 | 279 | 8.0 | 17.7 | 0.00 | 0.61 | 0.03 | 61 | 1010.7 |
| 20260906195220 | 34 | 282 | 6.4 | 14.5 | 0.00 | 0.61 | 0.03 | 62 | 1011.0 |
| 20260906194219 | 34 | 290 | 8.0 | 17.7 | 0.00 | 0.61 | 0.03 | 60 | 1010.7 |
| 20260906193219 | 33 | 254 | 6.4 | 16.1 | 0.00 | 0.61 | 0.03 | 64 | 1010.8 |
| 20260906192222 | 34 | 289 | 6.4 | 12.9 | 0.00 | 0.61 | 0.03 | 63 | 1011.0 |
| 20260906191700 | 33 | 292 | 6.4 | 16.1 | 0.00 | 0.61 | 0.03 | 68 | 1011.5 |
| 20260906190655 | 33 | 290 | 6.4 | 12.9 | 0.00 | 0.61 | 0.03 | 66 | 1011.5 |
| 20260906185212 | 32 | 261 | 9.7 | 20.9 | 0.00 | 0.61 | 0.03 | 67 | 1011.4 |
| 20260906184210 | 34 | 304 | 9.7 | 20.9 | 0.00 | 0.61 | 0.03 | 66 | 1011.6 |
| 20260906183211 | 33 | 241 | 6.4 | 12.9 | 0.00 | 0.61 | 0.03 | 65 | 1011.6 |
| 20260906182210 | 33 | 281 | 4.8 | 11.3 | 0.00 | 0.61 | 0.03 | 64 | 1011.8 |
| 20260906181209 | 32 | 275 | 4.8 | 11.3 | 0.00 | 0.61 | 0.03 | 72 | 1011.8 |
| 20260906180207 | 33 | 277 | 6.4 | 12.9 | 0.00 | 0.61 | 0.03 | 63 | 1011.8 |
| 20260906175207 | 35 | 309 | 6.4 | 12.9 | 0.00 | 0.61 | 0.03 | 64 | 1011.9 |
| 20260906174209 | 33 | 269 | 6.4 | 14.5 | 0.00 | 0.61 | 0.03 | 65 | 1011.9 |
| 20260906173208 | 33 | 254 | 6.4 | 14.5 | 0.00 | 0.61 | 0.03 | 64 | 1012.0 |
| 20260906172205 | 33 | 213 | 4.8 | 14.5 | 0.00 | 0.61 | 0.03 | 64 | 1012.1 |
| 20260906172130 | 33 | 215 | 3.2 | 11.3 | 0.00 | 0.61 | 0.03 | 67 | 1012.1 |
| 20260906170205 | 33 | 203 | 3.2 | 12.9 | 0.00 | 0.61 | 0.03 | 65 | 1012.3 |
| 20260906165204 | 33 | 292 | 6.4 | 14.5 | 0.00 | 0.61 | 0.03 | 68 | 1012.5 |
| 20260906164204 | 33 | 282 | 4.8 | 12.9 | 0.00 | 0.61 | 0.03 | 64 | 1012.5 |
| 20260906163203 | 33 | 289 | 6.4 | 16.1 | 0.00 | 0.61 | 0.03 | 65 | 1012.8 |
| 20260906162203 | 32 | 295 | 4.8 | 12.9 | 0.00 | 0.61 | 0.03 | 68 | 1012.9 |
| 20260906161204 | 32 | 301 | 4.8 | 12.9 | 0.00 | 0.61 | 0.03 | 69 | 1013.1 |
| 20260906160205 | 32 | 208 | 4.8 | 11.3 | 0.00 | 0.61 | 0.03 | 69 | 1013.1 |
| 20260906155203 | 32 | 251 | 6.4 | 11.3 | 0.00 | 0.61 | 0.03 | 69 | 1013.2 |
| 20260906154202 | 32 | 268 | 4.8 | 12.9 | 0.00 | 0.61 | 0.03 | 71 | 1013.3 |
| 20260906153204 | 31 | 250 | 4.8 | 11.3 | 0.00 | 0.61 | 0.03 | 71 | 1013.5 |
| 20260906152204 | 31 | 239 | 4.8 | 8.0 | 0.00 | 0.61 | 0.03 | 74 | 1013.5 |
| 20260906151204 | 31 | 280 | 3.2 | 12.9 | 0.00 | 0.61 | 0.03 | 72 | 1013.5 |
| 20260906150206 | 31 | 264 | 4.8 | 11.3 | 0.00 | 0.61 | 0.03 | 76 | 1013.5 |
| 20260906145156 | 31 | 275 | 4.8 | 11.3 | 0.00 | 0.61 | 0.03 | 72 | 1013.6 |
| 20260906144155 | 31 | 267 | 4.8 | 12.9 | 0.00 | 0.61 | 0.03 | 71 | 1013.6 |
| 20260906143156 | 30 | 286 | 4.8 | 16.1 | 0.00 | 0.61 | 0.03 | 78 | 1013.5 |
| 20260906142152 | 30 | 257 | 3.2 | 8.0 | 0.00 | 0.61 | 0.03 | 79 | 1013.5 |
| 20260906141153 | 30 | 300 | 4.8 | 11.3 | 0.00 | 0.61 | 0.03 | 80 | 1013.6 |
| 20260906140636 | 29 | 262 | 3.2 | 11.3 | 0.00 | 0.61 | 0.03 | 82 | 1013.7 |
| 20260906135153 | 29 | 293 | 4.8 | 11.3 | 0.00 | 0.61 | 0.03 | 83 | 1013.8 |
| 20260906134153 | 28 | 285 | 1.6 | 11.3 | 0.00 | 0.61 | 0.03 | 85 | 1013.9 |
| 20260906133643 | 28 | 237 | 1.6 | 4.8 | 0.00 | 0.61 | 0.03 | 86 | 1013.8 |
| 20260906132151 | 28 | 186 | 0.0 | 0.0 | 0.00 | 0.61 | 0.03 | 88 | 1013.9 |
| 20260906131152 | 27 | 186 | 0.0 | 0.0 | 0.00 | 0.61 | 0.03 | 89 | 1013.9 |
| 20260906130634 | 27 | 179 | 0.0 | 0.0 | 0.00 | 0.61 | 0.03 | 91 | 1013.9 |
| 20260906125152 | 27 | 179 | 0.0 | 0.0 | 0.00 | 0.61 | 0.03 | 92 | 1013.8 |
| 20260906124141 | 26 | 179 | 0.0 | 0.0 | 0.00 | 0.61 | 0.03 | 93 | 1013.7 |
| 20260906124105 | 26 | 178 | 0.0 | 0.0 | 0.00 | 0.61 | 0.03 | 94 | 1013.6 |
| 20260906122142 | 25 | 179 | 0.0 | 0.0 | 0.00 | 0.61 | 0.03 | 94 | 1013.4 |
| 20260906121143 | 25 | 179 | 0.0 | 6.4 | 0.00 | 0.61 | 0.03 | 95 | 1013.4 |
| 20260906120126 | 24 | 178 | 0.0 | 3.2 | 0.00 | 0.61 | 0.03 | 95 | 1013.4 |
| 20260906115128 | 23 | 178 | 0.0 | 0.0 | 0.00 | 0.61 | 0.03 | 95 | 1013.2 |
| 20260906114126 | 23 | 178 | 0.0 | 0.0 | 0.00 | 0.61 | 0.03 | 95 | 1013.1 |
| 20260906114056 | 23 | 178 | 0.0 | 0.0 | 0.00 | 0.61 | 0.03 | 95 | 1013.0 |
| 20260906112618 | 23 | 178 | 0.0 | 0.0 | 0.00 | 0.61 | 0.03 | 94 | 1012.9 |
| 20260906111126 | 23 | 178 | 0.0 | 0.0 | 0.00 | 0.61 | 0.03 | 94 | 1012.9 |
| 20260906110127 | 23 | 178 | 0.0 | 0.0 | 0.00 | 0.61 | 0.03 | 94 | 1012.7 |
| 20260906105609 | 23 | 178 | 0.0 | 0.0 | 0.00 | 0.61 | 0.03 | 94 | 1012.5 |
| 20260906104126 | 23 | 178 | 0.0 | 0.0 | 0.00 | 0.61 | 0.03 | 94 | 1012.3 |
| 20260906103609 | 23 | 178 | 0.0 | 0.0 | 0.00 | 0.61 | 0.03 | 94 | 1012.1 |
| 20260906102130 | 23 | 178 | 0.0 | 0.0 | 0.00 | 0.61 | 0.03 | 94 | 1012.0 |
| 20260906101125 | 23 | 178 | 0.0 | 0.0 | 0.00 | 0.61 | 0.03 | 94 | 1011.8 |
| 20260906100127 | 23 | 178 | 0.0 | 0.0 | 0.00 | 0.61 | 0.03 | 94 | 1011.8 |
| 20260906095126 | 23 | 178 | 0.0 | 0.0 | 0.00 | 0.61 | 0.03 | 94 | 1011.9 |
| 20260906094608 | 23 | 178 | 0.0 | 0.0 | 0.00 | 0.61 | 0.03 | 94 | 1011.8 |
| 20260906093601 | 23 | 178 | 0.0 | 0.0 | 0.00 | 0.61 | 0.03 | 94 | 1011.8 |
| 20260906092126 | 23 | 178 | 0.0 | 0.0 | 0.00 | 0.61 | 0.03 | 94 | 1011.7 |
| 20260906091127 | 23 | 178 | 0.0 | 0.0 | 0.00 | 0.61 | 0.03 | 94 | 1011.5 |
| 20260906090127 | 23 | 178 | 0.0 | 0.0 | 0.00 | 0.61 | 0.03 | 94 | 1011.5 |
| 20260906085127 | 23 | 178 | 0.0 | 0.0 | 0.00 | 0.61 | 0.03 | 94 | 1011.4 |
| 20260906084126 | 23 | 178 | 0.0 | 0.0 | 0.00 | 0.61 | 0.03 | 94 | 1011.3 |
| 20260906083129 | 23 | 178 | 0.0 | 0.0 | 0.00 | 0.61 | 0.03 | 94 | 1011.4 |
| 20260906082125 | 23 | 178 | 0.0 | 0.0 | 0.03 | 0.64 | 0.03 | 94 | 1011.4 |
| 20260906081123 | 23 | 178 | 0.0 | 0.0 | 0.03 | 0.64 | 0.03 | 94 | 1011.2 |
| 20260906080125 | 23 | 178 | 0.0 | 1.6 | 0.03 | 0.64 | 0.03 | 94 | 1011.2 |
| 20260906075125 | 23 | 178 | 1.6 | 6.4 | 0.03 | 0.64 | 0.03 | 94 | 1011.3 |
| 20260906074126 | 23 | 178 | 0.0 | 6.4 | 0.03 | 0.64 | 0.03 | 94 | 1011.4 |
| 20260906073110 | 23 | 178 | 0.0 | 6.4 | 0.03 | 0.64 | 0.03 | 94 | 1011.3 |
| 20260906072548 | 23 | 178 | 0.0 | 1.6 | 0.00 | 0.61 | 0.00 | 94 | 1011.4 |
| 20260906071110 | 23 | 178 | 0.0 | 0.0 | 0.00 | 0.61 | 0.00 | 94 | 1011.7 |
| 20260906070109 | 24 | 178 | 0.0 | 0.0 | 0.00 | 0.61 | 0.00 | 93 | 1011.7 |
| 20260906065058 | 24 | 178 | 0.0 | 1.6 | 0.00 | 0.61 | 0.00 | 93 | 1011.9 |
| 20260906065012 | 24 | 178 | 0.0 | 0.0 | 0.00 | 0.61 | 0.00 | 93 | 1012.2 |
| 20260906063056 | 24 | 178 | 0.0 | 0.0 | 0.00 | 0.61 | 0.00 | 93 | 1012.4 |
| 20260906062531 | 24 | 178 | 0.0 | 0.0 | 0.00 | 0.61 | 0.00 | 93 | 1012.5 |
| 20260906061055 | 24 | 178 | 0.0 | 1.6 | 0.00 | 0.61 | 0.00 | 93 | 1012.6 |
| 20260906060046 | 24 | 178 | 0.0 | 4.8 | 0.00 | 0.61 | 0.00 | 93 | 1012.6 |
| 20260906055046 | 24 | 178 | 1.6 | 6.4 | 0.00 | 0.61 | 0.00 | 93 | 1012.7 |
| 20260906054537 | 24 | 176 | 1.6 | 6.4 | 0.00 | 0.61 | 0.00 | 93 | 1012.7 |
| 20260906053043 | 25 | 175 | 1.6 | 6.4 | 0.00 | 0.61 | 0.00 | 93 | 1012.9 |
| 20260906052518 | 25 | 175 | 0.0 | 1.6 | 0.00 | 0.61 | 0.00 | 93 | 1012.9 |
| 20260906051041 | 25 | 175 | 0.0 | 1.6 | 0.00 | 0.61 | 0.00 | 93 | 1013.0 |
| 20260906050037 | 25 | 175 | 0.0 | 1.6 | 0.00 | 0.61 | 0.00 | 93 | 1013.1 |
| 20260906045037 | 25 | 176 | 0.0 | 1.6 | 0.00 | 0.61 | 0.00 | 93 | 1013.1 |
| 20260906044038 | 25 | 176 | 0.0 | 0.0 | 0.00 | 0.61 | 0.00 | 92 | 1013.1 |
| 20260906043037 | 25 | 175 | 0.0 | 1.6 | 0.00 | 0.61 | 0.00 | 92 | 1013.0 |
| 20260906042034 | 25 | 175 | 1.6 | 6.4 | 0.00 | 0.61 | 0.00 | 92 | 1013.0 |
| 20260906041033 | 25 | 176 | 0.0 | 4.8 | 0.00 | 0.61 | 0.00 | 92 | 1013.1 |
| 20260906040031 | 25 | 175 | 0.0 | 0.0 | 0.00 | 0.61 | 0.00 | 92 | 1013.3 |
| 20260906035029 | 25 | 175 | 0.0 | 0.0 | 0.00 | 0.61 | 0.61 | 92 | 1013.3 |
| 20260906034029 | 25 | 176 | 0.0 | 0.0 | 0.00 | 0.61 | 0.61 | 91 | 1013.3 |
| 20260906033454 | 25 | 175 | 0.0 | 0.0 | 0.00 | 0.61 | 0.61 | 91 | 1013.4 |
| 20260906032500 | 25 | 176 | 0.0 | 4.8 | 0.00 | 0.61 | 0.61 | 91 | 1013.4 |
| 20260906031018 | 25 | 175 | 0.0 | 6.4 | 0.00 | 0.61 | 0.61 | 90 | 1013.5 |
| 20260906030018 | 25 | 176 | 3.2 | 8.0 | 0.00 | 0.61 | 0.61 | 90 | 1013.4 |
| 20260906025930 | 25 | 176 | 4.8 | 11.3 | 0.00 | 0.61 | 0.61 | 90 | 1013.4 |
| 20260906024018 | 25 | 191 | 3.2 | 6.4 | 0.00 | 0.61 | 0.61 | 90 | 1013.5 |
| 20260906023019 | 26 | 190 | 6.4 | 16.1 | 0.00 | 0.61 | 0.61 | 90 | 1013.6 |
| 20260906022015 | 26 | 163 | 6.4 | 11.3 | 0.00 | 0.61 | 0.61 | 91 | 1013.6 |
| 20260906021501 | 26 | 173 | 4.8 | 14.5 | 0.00 | 0.61 | 0.61 | 92 | 1013.5 |
| 20260906020017 | 25 | 194 | 3.2 | 11.3 | 0.00 | 0.64 | 0.61 | 92 | 1013.4 |
| 20260906015014 | 25 | 154 | 3.2 | 8.0 | 0.00 | 0.64 | 0.61 | 92 | 1013.4 |
| 20260906014502 | 25 | 146 | 3.2 | 6.4 | 0.00 | 0.64 | 0.61 | 92 | 1013.4 |
| 20260906013013 | 25 | 135 | 1.6 | 4.8 | 0.00 | 0.64 | 0.61 | 92 | 1013.2 |
| 20260906012015 | 25 | 131 | 0.0 | 4.8 | 0.00 | 0.66 | 0.61 | 92 | 1013.3 |
| 20260906011017 | 25 | 129 | 1.6 | 4.8 | 0.00 | 0.69 | 0.61 | 91 | 1013.1 |
| 20260906010456 | 26 | 129 | 0.0 | 3.2 | 0.00 | 0.69 | 0.61 | 91 | 1013.0 |
| 20260906005011 | 26 | 129 | 1.6 | 6.4 | 0.00 | 0.69 | 0.61 | 91 | 1012.9 |
| 20260906004009 | 26 | 129 | 3.2 | 11.3 | 0.00 | 0.69 | 0.61 | 91 | 1012.7 |
| 20260906003451 | 26 | 115 | 3.2 | 12.9 | 0.00 | 0.69 | 0.61 | 91 | 1012.8 |
| 20260906002009 | 26 | 229 | 0.0 | 4.8 | 0.00 | 0.69 | 0.61 | 92 | 1012.6 |
| 20260906001006 | 26 | 230 | 0.0 | 3.2 | 0.00 | 0.74 | 0.61 | 92 | 1012.5 |
| 20260906000005 | 26 | 230 | 0.0 | 1.6 | 0.00 | 0.74 | 0.61 | 91 | 1012.5 |
| 20260905235005 | 26 | 229 | 1.6 | 6.4 | 0.00 | 0.74 | 0.61 | 91 | 1012.5 |
| 20260905234006 | 26 | 258 | 1.6 | 6.4 | 0.00 | 0.74 | 0.61 | 91 | 1012.5 |
| 20260905233008 | 26 | 344 | 0.0 | 3.2 | 0.00 | 0.74 | 0.61 | 90 | 1012.4 |
| 20260905232434 | 26 | 346 | 0.0 | 1.6 | 0.00 | 0.74 | 0.61 | 89 | 1012.3 |